This is the latest recevied weather packets stored in our database for station/object XE1E-15. If no packets are shown the sender has not sent any weather packets the latest 10 day(s).
| Time | Temp. | Humidity | Pressure | Rain* | Wind** | Luminosity | Snow |
|---|---|---|---|---|---|---|---|
| 1788154784 | 70° F | 100% | 770.2 mmHg | - | - | - | - |
| 1788153824 | 70° F | 100% | 770.1 mmHg | - | - | - | - |
| 1788152864 | 69° F | 100% | 770.2 mmHg | - | - | - | - |
| 1788151904 | 69° F | 100% | 770 mmHg | - | - | - | - |
| 1788150944 | 70° F | 100% | 770 mmHg | - | - | - | - |
| 1788149983 | 69° F | 100% | 769.9 mmHg | - | - | - | - |
| 1788149023 | 70° F | 100% | 769.9 mmHg | - | - | - | - |
| 1788148063 | 70° F | 100% | 769.9 mmHg | - | - | - | - |
| 1788147103 | 70° F | 100% | 769.9 mmHg | - | - | - | - |
| 1788146143 | 69° F | 100% | 769.9 mmHg | - | - | - | - |
| 1788145183 | 70° F | 100% | 769.6 mmHg | - | - | - | - |
| 1788144222 | 70° F | 98% | 769.3 mmHg | - | - | - | - |
| 1788143262 | 70° F | 96% | 769.1 mmHg | - | - | - | - |
| 1788142301 | 71° F | 96% | 768.9 mmHg | - | - | - | - |
| 1788141340 | 71° F | 93% | 768.6 mmHg | - | - | - | - |
| 1788140380 | 72° F | 90% | 768.4 mmHg | - | - | - | - |
| 1788139420 | 71° F | 79% | 768.2 mmHg | - | - | - | - |
| 1788138460 | 72° F | 72% | 768.1 mmHg | - | - | - | - |
| 1788137500 | 73° F | 75% | 767.9 mmHg | - | - | - | - |
| 1788136062 | 73° F | 60% | 767.7 mmHg | - | - | - | - |
| 1788135102 | 74° F | 68% | 767.5 mmHg | - | - | - | - |
| 1788134142 | 75° F | 59% | 767.5 mmHg | - | - | - | - |
| 1788133182 | 74° F | 54% | 767.4 mmHg | - | - | - | - |
| 1788132222 | 74° F | 63% | 767.4 mmHg | - | - | - | - |
| 1788131262 | 76° F | 52% | 767.5 mmHg | - | - | - | - |
* Rain since midnight (hover to see other rain measurements)
** Current wind speed in m/s (hover to see current wind gust speed)